Back to catalog

ONEWEB-0102

AliveCommunicationsPO
NORAD 47258·PAYLOAD·🇬🇧 United Kingdom

Launched Dec 18, 2020 from Vostochny Cosmodrome

Loading…

Next Passes (next 24 hours)

TLE

FreshSource: CelesTrak SupGP

Epoch: Sep 14, 2026, 08:30 UTC

1 47258C 20100A   26257.35435600 -.00004224  00000+0 -11756-1 0  2578
2 47258  87.8988 332.9697 0001900  94.4165  13.8751 13.12449979    19

Track ONEWEB-0102 in real time with AllMySat

Download on the App Store